Theta_e
345 344 344 343 342 341 338 337 336 335 335 336 336 336 336 336 337 337 334 335 337 338 338 337 337 336 333 332 329 328 329 329 329 329 328 328 325 325 330 334 334 334 333 333 332 331 329 324 321 320 320 326 332 335 335 334 334 333 333 332 331 330
346 345 345 343 342 342 340 339 339 338 337 336 337 337 338 338 339 339 336 336 338 338 338 338 339 338 336 335 331 326 327 327 328 327 325 323 322 325 331 334 334 334 334 333 333 333 331 326 322 321 325 332 334 334 335 335 334 333 333 332 331 330
346 345 345 344 342 342 341 340 341 341 339 338 337 338 339 340 340 340 338 338 339 339 338 339 339 337 338 338 333 327 326 326 326 326 324 321 321 326 331 333 334 334 333 333 335 336 335 331 325 324 331 335 334 335 335 335 334 334 333 332 331 330
345 345 346 345 343 343 342 342 342 341 341 340 339 340 341 340 342 342 340 341 341 339 339 340 339 337 337 339 335 330 328 327 326 324 323 320 321 328 332 334 334 333 333 335 338 338 337 335 330 330 334 335 334 335 335 335 334 334 334 332 331 329
344 345 345 345 344 344 343 343 343 342 343 342 342 343 343 342 343 343 342 343 342 341 341 341 340 337 336 338 337 335 332 332 332 328 325 326 327 331 334 336 335 334 336 337 338 337 336 336 334 334 335 335 335 335 335 335 335 334 333 332 330 328
345 345 345 345 345 344 344 344 344 344 344 343 343 343 344 343 343 343 343 343 342 342 343 342 341 339 338 338 337 337 335 335 336 333 332 333 334 334 335 337 336 336 338 338 337 337 337 336 335 335 335 335 335 335 334 335 335 334 333 332 329 329
346 345 346 345 345 345 344 344 344 344 344 343 344 343 344 343 343 344 343 343 342 342 343 342 342 341 340 339 337 337 337 336 336 334 334 335 335 336 336 337 337 337 337 337 337 337 336 335 335 335 335 335 335 335 335 334 334 333 332 332 330 329
347 346 346 345 345 345 344 345 344 344 343 343 343 344 344 343 344 343 342 342 342 342 342 342 341 341 341 340 338 337 337 337 335 334 334 334 333 335 335 337 338 337 337 337 336 335 335 335 335 335 335 335 335 335 335 335 333 332 332 332 331 329
347 346 346 346 345 345 345 345 344 344 343 343 343 344 343 342 343 343 342 342 342 342 342 341 341 341 341 341 339 337 337 337 336 335 335 334 332 333 335 336 337 337 337 336 335 335 334 335 335 334 335 335 334 335 335 335 333 332 332 333 332 330
347 346 346 345 345 344 345 345 345 344 343 342 342 342 342 342 341 342 342 342 342 342 342 342 341 340 341 341 340 338 337 337 337 336 335 334 332 333 334 336 337 337 337 336 336 335 335 334 334 334 334 334 335 335 335 334 333 333 333 333 333 330
346 346 345 345 345 345 344 344 345 343 343 342 341 341 341 341 340 340 341 342 342 341 341 341 340 340 340 340 339 339 338 337 337 336 335 335 334 333 334 335 336 336 337 336 336 335 335 334 334 333 334 335 335 335 334 334 333 333 333 333 332 331
345 346 345 345 345 344 343 343 344 343 342 342 340 341 340 340 340 340 341 341 340 340 340 339 338 338 338 338 339 339 338 338 338 337 335 335 335 333 333 335 336 336 336 337 336 336 335 335 335 334 334 335 335 335 334 334 333 333 334 333 332 332
344 345 345 344 343 343 342 342 342 342 342 341 340 340 339 340 340 339 339 340 339 340 340 338 337 337 337 338 339 337 337 338 338 337 336 335 335 334 333 334 335 336 336 336 336 336 335 335 336 335 335 335 335 335 334 334 334 334 333 333 332 332
343 343 344 342 342 342 342 341 341 341 341 340 339 339 339 340 340 338 338 339 339 339 338 338 338 336 337 339 338 338 338 338 337 337 336 336 336 335 334 333 334 335 335 336 336 336 336 336 337 336 336 336 335 334 334 334 333 333 333 333 332 332
341 342 342 341 341 342 343 341 341 341 340 340 338 338 338 338 338 338 338 338 338 338 338 338 337 335 336 338 337 337 337 338 338 337 336 336 336 335 334 334 332 333 335 336 336 337 336 337 337 336 336 335 335 334 334 334 334 333 333 333 332 332
340 341 341 341 340 340 342 340 340 341 339 339 339 337 337 336 336 337 338 338 337 337 337 337 337 335 335 336 336 335 334 336 337 338 337 336 336 336 335 335 333 334 336 336 336 336 336 337 337 337 336 336 335 334 334 334 334 333 333 333 333 333
340 340 341 341 339 338 340 338 338 339 338 338 338 338 337 336 336 337 338 337 336 336 336 335 336 335 334 335 336 336 334 334 336 337 337 337 336 335 336 336 335 335 335 335 335 336 337 337 337 337 337 336 335 335 334 334 334 333 333 333 333 333
339 339 340 340 339 338 338 338 336 337 338 338 338 338 338 337 337 337 337 337 335 335 335 335 335 335 335 336 336 336 335 335 335 335 336 337 337 336 336 336 336 335 334 334 334 336 337 337 337 337 337 336 336 335 334 334 334 333 333 333 332 332
339 339 339 339 338 337 338 338 336 336 338 338 337 337 336 335 336 336 337 337 335 333 334 335 335 335 336 336 336 336 336 336 336 334 334 336 337 336 336 336 336 335 335 335 334 335 337 337 337 336 336 336 335 335 334 334 333 333 333 333 332 332
339 339 339 338 338 336 336 337 336 335 336 336 336 336 334 334 335 335 335 336 335 332 332 334 335 336 336 336 336 336 336 336 336 334 333 334 336 336 337 337 336 336 336 336 334 335 336 336 336 336 336 335 335 335 334 333 333 333 332 332 332 332
339 339 338 337 338 337 337 336 335 334 334 335 335 335 334 333 334 335 335 335 335 334 333 334 335 336 336 336 336 336 336 336 336 335 333 333 335 337 338 337 336 336 336 336 335 335 336 336 335 335 334 334 334 334 334 333 333 332 332 332 332 332
339 338 338 337 337 337 337 336 335 335 334 334 335 335 335 335 334 335 335 335 334 333 334 335 335 335 335 336 336 336 336 336 336 335 334 334 335 336 336 336 335 335 335 335 335 335 335 334 334 334 333 332 332 333 333 333 332 332 332 332 332 332
338 338 337 336 335 336 336 336 335 334 334 335 335 334 334 335 335 334 335 335 333 333 334 335 335 335 335 335 335 335 336 335 335 335 335 334 334 334 335 335 335 335 335 334 335 335 335 333 332 332 332 331 331 332 332 332 332 332 332 332 332 332
338 337 337 336 336 335 335 335 335 334 334 335 335 334 335 335 334 335 336 335 334 333 334 335 335 335 335 335 335 334 335 335 335 335 335 334 333 333 334 334 333 334 334 334 333 333 334 333 332 332 331 331 331 331 331 331 331 331 331 331 331 331
337 336 336 337 336 336 336 335 335 335 335 335 335 335 337 337 336 336 336 336 336 334 334 335 336 335 334 334 334 333 334 334 335 335 335 334 334 334 334 334 333 332 333 333 333 332 332 333 333 333 331 331 331 331 331 331 331 330 330 331 331 331
337 335 335 336 335 335 335 335 335 336 336 336 335 336 337 337 336 336 336 336 335 335 335 335 335 335 334 333 333 333 333 333 334 335 335 334 335 334 334 333 333 332 332 333 333 332 333 333 334 333 331 331 331 330 331 332 331 330 331 331 331 330
335 335 336 335 335 335 335 335 335 335 336 336 336 337 338 337 337 337 337 336 335 335 335 335 335 334 333 333 334 333 333 333 334 334 334 335 334 334 334 333 333 332 332 332 333 333 334 334 333 333 333 333 332 332 332 332 331 331 331 331 330 330
335 335 335 335 334 335 335 335 335 335 336 336 336 338 338 338 338 337 337 336 335 335 335 335 334 334 333 334 334 333 333 334 334 334 334 334 334 334 334 332 332 332 331 333 334 333 334 334 333 332 333 333 332 332 333 333 332 331 331 331 331 331
335 335 335 335 334 334 334 335 335 336 336 336 336 337 337 338 338 338 336 336 336 335 335 334 334 334 333 333 333 333 333 333 334 334 334 334 334 335 334 332 333 333 333 334 334 334 333 333 333 332 333 333 332 332 331 332 332 332 331 331 330 330
335 335 336 335 334 334 334 334 335 335 335 336 336 336 336 337 337 337 336 335 335 335 335 334 334 334 333 333 333 333 333 333 333 334 334 334 334 335 334 334 334 335 335 335 335 334 334 334 333 333 332 332 332 331 330 331 331 331 331 331 330 330
335 335 335 335 335 335 334 334 335 335 335 335 335 335 336 336 336 337 337 336 335 335 335 334 334 334 334 334 333 333 333 334 334 334 334 334 334 335 335 335 335 335 336 335 335 335 335 335 334 333 332 332 332 332 331 331 331 331 331 331 330 330
335 334 334 334 335 335 335 335 335 335 335 335 335 335 335 336 336 336 336 336 335 335 334 333 333 333 333 334 334 333 333 333 334 334 335 333 333 334 334 334 334 335 335 335 335 335 334 334 333 332 332 332 331 330 330 331 330 330 331 331 330 330
335 335 334 334 334 335 334 334 335 335 335 335 335 335 334 335 336 335 335 334 334 334 334 334 333 333 333 333 334 333 332 333 334 334 334 333 332 334 334 333 334 334 334 334 335 334 333 333 332 333 334 334 331 329 329 329 329 330 331 330 330 331
333 333 333 334 334 334 334 334 334 334 334 334 334 334 334 334 335 334 334 335 334 334 334 333 333 333 333 333 333 333 333 334 334 334 334 333 332 333 333 333 333 333 333 334 334 333 334 334 334 334 334 333 331 330 329 330 330 330 331 331 330 331
331 331 332 333 333 334 334 334 334 334 333 333 333 333 333 334 334 333 334 335 334 334 334 333 333 333 333 333 333 333 333 333 334 334 334 333 332 333 333 333 332 332 332 332 332 332 333 334 334 335 334 333 331 331 330 331 331 330 331 330 330 330
329 329 330 331 332 333 332 332 332 332 332 332 332 332 333 333 333 332 333 334 334 334 334 334 333 333 333 333 333 333 333 333 334 334 333 333 333 333 332 332 332 332 332 331 331 332 333 334 334 334 335 334 332 331 331 331 330 331 330 330 330 330
328 329 329 330 330 331 331 330 330 331 331 331 331 332 332 332 332 331 331 332 333 334 334 334 333 333 333 333 333 333 333 333 333 334 334 334 334 332 332 333 331 331 332 331 331 333 334 334 334 334 334 334 331 330 332 332 331 331 331 330 330 330
Wind_Speed
20 20 19 18 17 17 18 19 18 19 20 21 22 21 21 20 18 18 19 20 18 16 14 13 13 13 13 11 12 13 13 14 14 13 14 14 14 14 12 11 9 10 11 12 11 10 10 10 11 12 13 14 13 10 7 8 9 9 10 11 11 12
20 19 19 18 18 18 18 18 17 17 18 19 19 19 18 17 16 16 18 18 16 15 15 14 15 13 12 11 11 13 13 13 13 13 13 15 16 15 13 12 10 10 12 13 11 10 9 10 10 12 13 13 10 6 6 7 8 9 10 11 11 12
19 19 19 18 17 18 18 19 18 18 17 18 18 17 17 17 16 16 17 17 15 14 14 15 16 15 13 11 11 12 13 13 13 13 13 15 17 17 14 12 11 11 13 13 11 9 9 9 9 11 11 9 6 6 7 7 7 9 9 10 11 12
19 19 18 17 17 17 19 19 18 19 19 19 19 18 18 18 17 17 17 15 13 14 14 14 16 16 14 12 11 12 13 12 12 12 12 14 17 17 15 13 11 12 13 11 8 8 8 8 9 8 6 5 6 7 7 6 7 8 9 10 10 11
18 19 18 17 16 16 18 18 17 18 18 17 17 18 17 16 16 16 15 13 12 13 13 13 15 16 15 14 13 13 13 11 11 11 11 13 14 15 15 13 13 13 12 10 8 8 7 8 8 7 6 7 7 6 6 7 8 8 9 9 9 10
17 18 17 15 14 15 16 15 15 15 15 14 15 15 14 13 14 15 14 13 12 12 12 12 13 15 14 14 14 13 13 12 11 11 12 11 12 13 13 12 14 13 11 9 9 8 7 7 7 7 7 7 7 6 7 7 7 8 9 8 8 10
15 15 14 14 13 13 14 13 12 14 13 12 13 12 12 12 12 14 14 14 13 12 12 12 13 14 13 13 14 13 13 13 12 12 12 11 11 12 12 12 13 12 11 10 9 8 7 7 7 7 7 7 7 7 7 7 7 8 8 8 8 8
12 13 13 14 12 12 12 11 11 13 12 11 11 11 11 12 12 14 14 14 14 13 12 12 12 13 13 13 13 13 12 13 12 12 12 11 11 12 11 11 12 12 11 10 10 9 8 7 6 7 7 7 7 7 7 7 7 7 8 8 7 7
11 11 12 12 11 10 10 11 11 10 10 10 10 10 10 11 11 12 13 13 13 13 13 12 12 12 12 12 12 12 12 12 12 12 12 11 11 11 11 11 11 12 11 10 10 9 8 7 6 6 7 7 7 7 7 7 7 7 7 8 7 6
9 9 10 10 10 10 10 10 10 9 10 10 10 11 11 11 11 11 12 13 14 15 15 13 12 11 11 11 11 11 11 12 12 12 12 11 11 11 10 11 11 11 11 11 10 9 8 7 6 6 6 7 7 7 7 7 6 6 6 7 7 5
8 8 8 9 9 10 11 10 9 9 9 11 12 12 11 11 11 11 10 12 15 16 15 14 13 12 12 12 10 10 10 11 12 12 12 11 11 11 10 10 11 11 11 11 10 9 8 7 7 6 6 7 7 7 7 6 6 6 6 5 6 6
8 8 8 8 9 10 12 11 10 10 10 12 12 11 11 10 10 10 10 12 14 13 12 15 15 14 14 12 10 10 10 10 11 11 12 12 12 11 10 10 11 11 11 10 10 10 9 8 7 6 6 6 7 7 6 6 6 5 5 5 5 6
8 8 8 8 9 11 12 11 10 10 11 11 10 9 9 9 10 11 11 12 13 11 11 15 15 14 12 10 9 9 10 10 10 10 11 13 13 12 11 10 11 11 11 10 10 10 9 8 8 7 6 6 6 7 6 6 6 5 5 5 4 4
6 7 8 9 9 9 11 11 8 8 10 10 9 8 7 8 10 12 12 11 12 11 11 12 14 14 11 8 8 8 8 9 10 10 11 13 13 13 12 11 12 12 11 11 10 10 9 8 8 7 7 7 6 6 6 6 6 6 5 4 4 4
6 6 8 9 9 8 8 10 9 7 9 9 9 9 8 9 10 11 10 9 11 10 8 10 12 13 11 10 10 9 10 9 9 10 10 12 13 13 13 13 13 13 12 11 10 10 9 8 8 7 7 7 6 6 6 6 6 6 5 5 4 4
8 7 7 9 10 9 8 9 9 8 10 9 10 11 9 8 9 9 8 7 9 10 10 10 11 11 11 12 12 12 14 12 10 10 9 10 12 13 12 13 14 14 13 12 11 10 9 8 8 7 7 6 6 6 6 5 5 5 5 5 4 4
8 8 7 7 8 8 9 10 9 8 10 10 11 10 8 8 8 7 6 5 7 10 10 9 11 12 12 13 12 12 14 13 12 12 10 10 12 12 12 12 12 13 13 12 12 11 9 8 8 7 7 6 6 6 5 5 5 5 5 5 4 4
7 7 7 6 5 6 9 9 9 8 8 8 9 8 8 8 7 6 5 4 6 7 8 9 11 12 13 14 12 12 12 12 13 13 11 10 11 12 13 12 12 13 13 13 12 11 9 8 8 8 8 8 7 6 5 5 4 4 4 5 5 4
5 6 5 5 5 6 8 8 8 9 9 9 9 9 10 9 7 8 7 6 7 7 8 10 11 12 14 13 13 12 11 11 13 14 12 11 11 12 13 13 13 13 12 13 13 12 10 10 9 9 9 9 8 7 6 5 4 4 5 5 5 4
4 4 4 4 5 7 9 9 8 9 10 11 11 11 11 10 9 9 10 9 10 11 10 9 9 11 13 13 13 13 11 12 14 15 15 13 12 12 12 13 13 14 13 13 13 12 11 11 11 10 10 9 8 7 6 6 5 5 5 5 5 5
4 3 3 4 6 7 9 9 8 9 11 12 11 10 10 11 11 10 11 11 11 12 11 9 9 10 12 12 13 13 12 14 15 16 17 15 12 11 11 12 13 13 14 14 14 13 13 13 12 11 10 9 8 7 6 7 6 6 6 6 6 6
2 2 4 4 5 6 8 8 7 8 12 14 12 10 9 10 11 10 10 11 11 12 11 9 10 11 12 11 12 13 13 15 15 15 15 13 11 11 12 14 14 14 14 14 14 14 16 15 12 11 10 8 7 6 6 7 7 7 7 7 7 7
1 2 3 3 3 6 8 8 6 7 10 12 12 10 10 10 11 11 11 12 12 11 10 9 10 11 11 10 11 13 14 14 14 15 15 13 12 13 15 16 16 15 14 13 12 13 16 15 12 13 12 8 5 5 5 7 9 8 7 7 7 8
1 2 4 4 4 4 6 6 6 6 8 10 10 9 10 11 12 12 12 13 13 13 13 10 10 10 10 10 10 12 13 13 14 15 15 15 15 15 16 16 17 17 15 13 13 14 15 14 13 13 10 6 5 5 4 7 10 9 8 8 7 9
1 2 4 5 4 4 5 5 5 5 7 9 9 9 10 11 13 12 12 12 12 14 13 10 10 10 10 10 10 10 12 12 14 16 16 16 16 16 15 15 17 19 19 16 13 14 14 13 12 11 7 3 4 4 4 7 9 8 10 10 7 8
2 3 3 3 4 4 5 6 7 8 8 9 10 11 11 11 10 11 11 11 11 12 11 10 10 10 10 11 10 10 12 13 14 17 18 17 16 15 15 17 17 18 19 17 14 13 13 12 11 12 11 6 3 3 4 8 7 5 8 9 8 9
2 3 3 4 5 5 6 7 9 10 10 11 11 10 10 9 8 8 9 9 10 11 10 10 11 11 11 11 12 12 13 14 14 17 19 18 17 16 16 18 18 18 19 18 16 14 13 13 12 13 13 10 5 4 4 6 4 3 6 6 8 10
2 3 4 5 6 7 8 9 10 11 11 11 10 8 8 9 8 8 8 8 9 10 11 11 12 12 12 12 13 13 13 14 15 17 19 19 18 17 18 19 18 18 20 18 16 14 13 14 14 13 14 12 8 6 5 4 3 3 4 5 7 8
2 3 4 5 7 8 9 9 10 11 12 12 11 9 8 9 8 8 9 8 8 9 10 11 12 13 12 13 14 14 14 16 16 16 18 18 17 16 18 19 17 17 18 16 15 14 13 14 14 13 13 12 10 8 8 6 4 5 5 4 6 7
1 3 4 5 6 8 10 11 11 12 12 12 12 10 9 10 10 9 9 8 7 8 9 10 11 12 12 13 14 15 16 16 17 16 16 16 15 15 17 17 16 17 16 15 14 14 13 13 14 13 12 12 10 8 8 8 7 6 5 4 4 7
1 2 4 6 7 9 10 11 11 12 12 13 13 12 11 11 11 10 9 8 6 6 8 10 11 11 12 12 13 16 17 16 16 15 15 16 16 15 16 16 15 16 16 16 15 14 13 12 12 13 12 12 11 9 8 7 6 7 6 4 4 7
1 2 3 5 7 8 9 10 11 11 12 13 13 13 13 12 11 10 9 7 6 6 8 11 10 10 12 13 14 17 18 16 15 14 15 17 17 15 15 16 16 16 16 17 16 15 15 14 14 15 14 13 11 11 11 6 5 7 7 5 5 5
4 3 3 5 6 7 9 9 10 11 12 13 14 14 15 12 10 9 8 7 8 9 9 10 10 11 12 15 16 18 19 17 16 15 16 18 18 17 16 16 18 18 17 17 18 18 17 17 17 16 13 11 11 12 12 8 6 6 6 6 6 5
6 6 5 5 6 7 8 9 9 10 11 12 13 15 15 12 10 10 10 9 11 12 11 10 12 14 15 17 19 20 20 19 16 15 17 19 20 20 19 17 18 18 18 18 18 18 17 16 16 13 11 12 13 14 13 10 7 6 6 7 7 6
7 7 7 7 7 7 7 8 8 9 10 11 13 14 14 12 10 12 14 13 14 15 13 12 13 15 17 19 19 20 21 19 17 17 19 20 20 21 21 19 18 17 17 17 17 18 16 14 13 12 11 11 12 13 11 10 8 7 8 8 7 8
8 7 8 7 8 7 6 8 9 9 10 11 12 13 14 12 12 15 18 16 15 17 15 12 12 14 17 18 18 19 20 18 18 18 20 20 19 21 21 19 18 18 19 19 18 17 15 13 12 12 12 11 11 12 11 10 9 8 8 8 8 9
9 9 8 8 8 7 7 9 10 10 11 11 11 12 13 12 14 18 19 18 17 17 16 14 13 14 15 16 17 19 19 17 16 15 15 15 16 18 18 18 17 17 19 19 19 17 14 12 12 12 13 13 13 12 11 10 10 9 9 9 9 9
Wind_Direction
163 164 164 164 163 166 173 172 171 169 168 169 170 171 169 169 170 169 167 159 152 152 158 157 154 158 162 165 173 177 179 182 184 182 174 164 158 158 150 141 147 148 146 142 131 118 108 105 105 108 112 102 83 79 99 101 98 97 97 100 102 107
165 166 167 165 163 167 172 171 171 170 170 172 171 171 169 170 171 170 167 163 159 160 164 163 163 163 162 166 175 181 184 185 186 185 176 165 160 160 155 149 153 154 150 141 129 123 117 110 109 112 105 88 81 98 107 99 100 98 98 102 105 110
169 170 169 167 166 168 170 171 172 171 172 175 174 172 171 173 174 170 168 169 168 167 167 167 168 167 163 166 175 180 183 185 187 187 178 167 162 160 158 155 157 158 150 139 133 138 135 125 121 114 98 86 102 117 107 105 102 96 99 102 110 120
174 173 173 170 168 170 173 173 174 175 175 176 177 178 177 176 177 173 170 173 172 169 170 168 169 170 167 167 174 175 176 182 184 190 182 167 163 160 157 159 164 161 152 148 151 153 143 139 137 127 115 114 123 118 111 108 100 99 101 101 115 127
179 179 178 174 172 174 175 175 177 180 180 179 182 184 182 181 182 178 176 178 175 171 172 170 170 173 173 171 170 169 171 172 173 183 175 161 164 163 159 164 169 166 165 167 166 157 147 146 146 141 136 128 123 120 114 106 101 102 100 100 115 122
183 183 182 178 176 177 178 179 182 184 184 185 188 190 188 190 190 184 182 183 179 178 178 176 174 173 175 176 173 171 171 168 167 175 169 159 166 170 172 173 172 174 177 174 164 156 151 149 146 139 133 127 125 122 111 105 104 103 102 103 115 120
183 183 184 184 180 180 183 185 188 188 188 189 193 196 195 197 198 190 186 185 185 186 186 184 181 177 176 178 178 177 174 171 172 176 176 171 171 178 184 182 180 182 179 173 165 158 154 151 148 140 133 129 126 120 112 109 108 106 105 105 114 123
184 184 186 187 184 184 190 192 192 189 191 195 194 199 200 198 199 195 192 192 192 193 193 190 187 183 181 183 184 182 178 175 176 179 178 177 177 180 187 188 185 183 179 174 167 161 157 153 150 143 134 131 126 119 113 111 114 113 112 112 117 127
185 185 186 186 187 190 195 195 191 188 196 200 197 203 204 201 202 201 200 199 198 196 195 194 193 189 187 187 188 186 184 180 179 180 175 174 179 182 187 188 184 182 179 174 169 166 162 157 155 150 139 133 128 120 115 115 121 118 114 117 122 135
183 185 185 186 191 196 198 195 194 193 198 202 204 210 209 208 209 206 206 205 205 203 195 191 191 190 190 189 186 188 188 183 180 179 175 173 178 183 188 185 182 183 180 177 174 168 165 165 164 159 147 136 129 124 121 121 125 121 118 121 124 134
184 182 187 192 195 201 204 201 200 198 202 207 208 213 211 212 215 212 212 212 212 211 200 191 189 189 192 190 187 190 188 185 183 180 177 174 178 184 188 184 183 184 183 181 176 170 171 172 172 168 156 142 134 132 129 127 128 126 125 127 129 132
185 184 188 197 199 208 213 208 202 198 209 216 211 216 215 213 225 224 222 222 220 219 206 196 196 198 198 194 194 195 190 190 187 183 181 177 178 183 186 185 183 185 184 182 178 175 176 177 178 174 163 150 141 138 134 133 134 133 133 134 135 138
185 184 183 197 204 213 217 208 202 200 211 219 215 222 222 215 228 232 232 232 228 225 215 203 200 205 207 198 197 197 194 196 190 184 186 182 179 182 185 187 186 187 188 187 182 179 181 181 179 174 166 155 146 142 139 141 142 141 143 142 141 144
191 189 191 205 209 212 219 212 206 209 214 219 222 232 233 225 236 241 242 244 239 231 219 206 199 206 211 199 195 200 199 198 192 186 186 185 184 185 187 189 191 192 194 195 188 183 186 183 178 174 165 156 151 148 149 151 150 150 152 154 150 147
214 209 203 210 209 205 215 215 211 212 215 220 227 233 232 229 242 249 251 258 258 251 229 207 199 206 212 204 197 199 200 196 191 187 187 191 190 189 190 191 194 196 197 200 194 188 187 182 182 177 165 161 159 158 161 161 159 159 160 162 155 151
216 219 211 210 216 212 209 220 222 208 210 219 226 228 228 233 245 252 254 258 260 259 243 214 202 208 216 215 206 198 200 198 190 188 189 195 193 191 191 190 195 197 195 199 198 192 187 182 183 177 166 167 166 166 168 165 167 167 164 166 158 151
210 219 215 204 214 223 221 235 240 214 213 225 228 231 234 240 247 252 253 253 256 256 246 218 201 211 221 222 215 205 206 201 197 197 192 193 194 190 190 189 194 196 195 201 201 194 186 176 176 176 170 169 169 171 173 170 172 170 168 169 161 156
212 222 218 198 198 220 226 236 240 227 231 236 231 235 241 244 247 253 253 246 257 258 242 222 215 222 227 228 223 217 213 204 205 207 197 195 195 192 190 187 189 192 196 204 204 198 187 171 170 173 169 169 170 172 178 179 175 174 181 178 167 165
210 224 225 219 217 231 236 239 242 242 243 236 230 234 239 243 245 249 248 235 248 263 248 230 227 231 232 232 228 225 221 208 208 208 201 201 200 197 192 183 185 190 192 201 205 201 188 170 168 172 172 171 171 177 181 181 185 191 193 184 173 173
195 213 226 235 237 246 252 249 246 246 240 230 229 233 238 245 245 247 247 238 246 261 258 237 229 232 233 233 229 225 219 210 210 207 205 207 206 203 191 178 182 185 184 193 200 200 193 179 172 172 172 170 168 175 180 183 194 196 196 191 185 189
192 218 240 231 224 239 249 241 233 238 238 231 227 229 237 245 242 242 243 240 244 252 251 241 238 237 234 231 225 220 212 210 212 206 205 208 206 202 190 177 177 182 186 188 190 194 187 174 171 173 170 163 162 173 181 189 200 200 200 200 196 200
182 249 256 234 219 232 240 233 225 230 233 232 230 228 231 236 237 237 237 234 237 244 246 244 244 244 240 231 224 221 217 218 216 207 202 202 201 194 185 178 174 180 192 192 188 188 179 169 175 183 175 164 163 174 182 190 204 206 205 206 205 208
195 244 228 219 226 242 242 241 248 239 231 234 237 234 229 230 239 243 243 242 242 244 244 242 242 244 242 236 229 225 223 223 218 210 204 201 202 194 185 182 175 173 184 194 194 189 184 180 186 187 182 184 171 167 184 197 207 208 208 209 210 217
247 244 219 213 210 224 231 239 261 253 236 240 243 237 228 227 238 245 248 252 253 249 245 241 240 241 239 234 232 229 227 223 214 209 204 201 203 199 193 188 181 172 172 188 198 195 195 198 205 199 189 195 169 169 205 198 197 198 198 207 214 222
197 246 236 226 212 206 212 218 234 237 232 240 241 233 225 222 230 239 242 245 250 250 245 239 236 237 237 230 226 227 228 220 208 205 203 200 202 199 195 191 186 184 182 190 199 198 201 208 219 213 199 206 170 191 222 172 177 190 190 201 209 215
174 237 235 232 232 221 215 212 215 218 216 222 227 224 222 223 227 232 234 237 243 244 239 234 232 231 230 228 223 222 222 215 205 204 202 200 200 198 197 194 190 193 194 197 200 199 200 203 212 210 211 229 189 197 217 164 166 186 182 193 196 197
193 241 240 240 234 219 215 215 220 227 225 225 227 224 224 228 231 232 234 240 245 245 236 230 231 228 226 224 223 220 216 212 205 204 203 200 198 196 198 196 190 196 200 198 200 201 196 194 199 206 215 228 208 200 222 191 189 182 167 183 188 191
192 229 245 244 228 217 220 219 222 232 235 237 238 233 229 230 231 231 235 243 248 249 242 232 228 228 226 225 228 222 211 209 204 202 205 204 199 196 198 195 188 201 208 200 197 199 195 192 196 203 209 219 218 206 207 214 251 243 197 177 174 186
197 218 227 238 231 224 225 222 222 228 235 243 246 243 240 237 239 237 237 243 245 248 247 239 232 231 229 228 231 227 213 210 206 201 204 204 199 198 202 197 189 200 205 196 193 196 196 195 199 206 203 205 215 209 198 201 221 236 229 189 170 177
238 240 230 237 240 233 230 229 229 231 236 243 247 247 244 240 243 244 244 246 244 246 247 243 237 235 235 231 231 229 220 215 210 204 200 197 195 197 201 199 195 197 197 193 193 196 198 198 202 208 197 194 207 209 202 197 195 208 221 215 185 163
280 279 261 246 242 240 238 237 239 240 241 244 247 249 247 242 239 239 244 247 247 247 247 247 243 237 237 232 230 231 226 220 217 210 200 195 194 195 198 198 200 201 199 199 199 197 199 199 199 202 198 197 200 208 219 211 195 194 193 207 197 156
306 286 275 259 251 248 244 242 244 245 245 247 250 251 251 249 244 240 239 241 250 253 250 252 248 238 236 232 227 229 228 224 222 215 203 199 196 195 199 198 200 204 202 203 204 199 199 200 198 199 203 199 186 199 223 225 207 200 184 185 195 170
329 323 294 273 264 257 252 250 249 251 252 251 251 252 253 251 244 240 237 231 236 240 244 249 245 236 237 235 228 227 228 223 220 216 206 200 197 202 208 203 201 203 200 204 208 204 202 202 200 197 199 195 181 194 212 208 205 204 179 174 185 176
338 331 317 294 274 262 258 256 253 253 253 252 251 251 250 244 230 227 228 225 229 232 230 227 225 223 226 232 228 224 227 223 217 215 207 199 198 205 211 206 202 202 199 205 208 205 204 201 199 194 193 198 193 195 203 200 199 195 180 180 178 167
334 321 318 310 292 278 266 259 256 254 254 255 255 253 251 246 233 224 223 224 230 234 230 217 214 214 218 228 228 225 228 225 215 211 205 198 197 203 208 202 200 199 198 206 209 206 204 197 195 197 196 201 196 190 192 192 192 191 187 183 173 168
336 322 314 306 299 295 274 261 263 262 261 260 258 256 255 252 242 230 225 224 228 232 231 220 212 210 212 221 223 221 227 229 221 211 200 192 192 199 205 203 201 198 197 204 206 202 198 191 192 197 196 201 201 192 185 185 191 190 185 182 176 173
348 338 329 316 303 296 276 268 271 266 260 254 249 250 252 250 243 235 229 226 226 228 228 221 215 212 210 215 217 214 218 223 221 211 196 191 195 198 201 202 203 199 195 198 199 193 189 188 192 197 198 201 203 196 181 182 192 187 181 184 181 182